Location: Trebic
(49.2170°N, 15.8830°E)
Time: 07:07:48
(UTC+02:00)

Courier 1B Rocket - Pass Details

Date: 25 August 2019
Orbit: 920 x 1202 km, 28.2° (Epoch: 17 September)

Event Time Altitude Azimuth Distance (km) Brightness Sun altitude
Rises 03:20:13 0° 212° (SSW) 3,862 - -22.3°
Reaches altitude 10° 03:25:40 10° 179° (S) 2,986 - -21.8°
Maximum altitude 03:27:23 11° 165° (SSE) 2,942 - -21.6°
Exits shadow 03:27:51 11° 161° (SSE) 2,953 7.2 -21.5°
Drops below altitude 10° 03:29:08 10° 151° (SSE) 3,031 7.4 -21.4°
Sets 03:34:50 0° 119° (ESE) 4,053 8.4 -20.8°
